Flag for Germany Weather past 2 weeks in Steinfurt, North Rhine-Westphalia, Germany

Now
68 °F

Mild.


Feels Like: 68 °F
Forecast: 60 / 72 °F
Wind: 1 mph from West

Location: Rheine-Bentlage

Current Time: Sep 19, 2014 at 8:18:37 PM

Latest Report: Sep 19, 2014 at 7:20 PM


Visibility: 3 mi

Pressure: 29.86 "Hg

Humidity: 88%

Dew point: 64 °F

Location of SteinfurtLocation

Historic Weather in Steinfurt — Graph

°F

Steinfurt temperature yesterday

Maximum temperature yesterday: 79 °F (at 2:20 PM)
Minimum temperature yesterday: 54 °F (at 7:20 AM)
Average temperature yesterday: 65 °F

Past Weeks' High & Low Weather Summary

 TemperatureHumidityPressure
High79 °F (Sep 18, 2:20 PM)100% (Sep 5, 10:20 PM)30.27 "Hg (Sep 5, 10:20 PM)
Low45 °F (Sep 12, 6:20 AM)48% (Sep 18, 2:20 PM)29.83 "Hg (Sep 18, 4:20 PM)
Average62 °F83%30.04 "Hg
* Reported Sep 4 6:20 PM — Sep 19 6:20 PM, Steinfurt, Weather by CustomWeather, © 2014

Note: Actual official high and low records may vary slightly from our data, if they occured in-between our weather recording intervals... More about our weather records

Advertising

Steinfurt weather history for previous 24 hours

 ConditionsComfort  
Time TempWeatherWind HumidityBarometerVisibility
6:20 PM
Sep 19
70 °FMild.3 mph83%29.86 "Hg2 mi
5:20 PM70 °FMild.2 mph83%29.86 "Hg3 mi
4:20 PM70 °FMild.1 mph78%29.86 "Hg3 mi
3:20 PM72 °FMild.1 mph73%29.86 "Hg3 mi
2:20 PM70 °FMild.1 mph78%29.86 "Hg3 mi
1:20 PM70 °FMild.2 mph78%29.86 "Hg3 mi
12:20 PM70 °FPartly sunny.2 mph78%29.86 "Hg4 mi
11:20 AM66 °FPartly sunny.2 mph83%29.86 "Hg4 mi
10:20 AM64 °FPartly sunny.2 mph88%29.86 "Hg4 mi
8:20 AM59 °FFog.1 mph94%29.86 "Hg3 mi
7:20 AM59 °FFog.2 mph94%29.86 "Hg3 mi
6:20 AM61 °FFog.2 mph94%29.83 "HgN/A
5:20 AM61 °FPassing clouds.3 mph94%29.86 "HgN/A
4:20 AM61 °FCool.3 mph94%29.86 "Hg3 mi
3:20 AM61 °FCool.5 mph94%29.86 "Hg3 mi
2:20 AM61 °FCool.6 mph94%29.86 "Hg3 mi
1:20 AM63 °FMild.5 mph88%29.86 "Hg3 mi
12:20 AM63 °FMild.5 mph88%29.89 "Hg2 mi
11:20 PM
Sep 18
63 °FMild.2 mph88%29.89 "Hg2 mi
10:20 PM64 °FMild.2 mph83%29.86 "Hg3 mi
9:20 PM66 °FMild.3 mph78%29.86 "Hg3 mi
8:20 PM66 °FMild.5 mph83%29.86 "Hg3 mi
Weather by CustomWeather, © 2014

See weather overviewHow to use our weather pages